Theta_e
302 301 302 303 305 305 300 294 282 296 303 286 287 281 284 288 285 291 289 292 291 292 294 293 294 294 298 302 302 296 300 298 291 296 300 301 300 298 299 293 291 293 293 294
302 303 302 303 304 304 295 289 288 297 298 280 281 285 285 286 284 285 286 288 293 295 293 290 294 297 302 302 300 298 300 295 289 292 296 298 297 298 299 298 296 293 291 294
302 302 303 303 303 303 297 289 282 288 290 290 285 282 282 282 287 286 286 288 293 288 289 294 292 295 302 304 302 303 302 296 293 289 293 297 294 296 298 297 291 294 294 298
302 302 302 303 303 303 297 287 284 286 279 282 284 285 285 283 281 287 288 285 285 285 285 290 290 295 297 300 302 303 300 293 295 296 296 296 295 295 296 295 297 294 297 295
301 301 302 302 303 302 294 285 285 286 284 285 282 283 281 281 283 285 285 284 286 289 284 287 288 294 295 295 301 300 301 293 295 293 296 296 294 296 296 297 297 297 297 297
300 301 301 302 302 301 292 289 289 288 284 283 281 280 281 281 283 285 287 286 285 286 289 296 298 297 298 301 299 298 298 294 292 289 295 294 289 295 294 295 296 298 294 301
301 301 300 301 302 301 295 292 290 284 280 281 281 283 284 283 284 283 286 288 285 288 293 296 295 295 298 299 298 301 297 295 292 290 292 285 297 300 300 298 298 298 298 299
300 300 300 300 301 301 296 295 291 286 280 283 282 282 282 284 285 285 286 289 293 296 292 286 285 287 292 294 297 297 298 296 289 286 288 292 296 296 297 297 297 300 300 300
300 300 300 300 301 301 297 295 296 289 283 282 285 283 284 281 282 283 287 293 296 294 287 284 279 284 288 288 291 298 297 296 292 286 285 284 295 300 301 300 292 300 302 302
301 301 301 301 301 301 298 295 297 291 283 287 287 282 282 286 284 282 286 288 290 293 284 280 278 284 292 286 288 289 291 290 289 289 286 292 296 299 302 291 296 301 302 303
302 302 301 301 301 302 299 294 297 291 285 287 289 289 285 286 285 281 285 285 287 285 281 282 283 285 290 290 293 292 291 289 287 287 287 285 298 299 296 300 302 303 303 302
302 302 302 302 302 302 301 292 297 297 288 287 293 292 293 291 292 288 289 287 288 290 288 288 289 287 290 292 287 296 289 295 291 293 293 299 299 300 301 304 303 301 302 302
302 302 302 302 302 302 301 295 295 293 287 286 288 288 293 295 295 297 288 290 293 290 291 285 290 285 291 289 291 293 295 298 294 295 297 297 298 299 300 302 301 300 301 302
301 301 301 302 301 302 302 296 296 293 288 282 285 295 292 296 296 296 297 293 295 293 290 284 283 286 291 292 295 295 296 297 295 294 295 296 297 298 300 299 300 300 301 301
301 301 300 300 300 301 300 299 297 297 289 284 283 291 293 295 296 293 294 293 291 289 285 284 283 289 290 289 293 294 298 296 295 293 297 300 298 299 300 299 299 301 300 300
301 300 300 300 299 300 295 286 296 298 296 288 282 290 290 292 293 293 294 294 293 290 286 285 287 292 292 290 291 294 296 299 301 298 300 299 300 298 299 298 298 299 300 299
301 301 300 300 300 298 288 287 292 299 297 286 283 284 289 293 293 292 292 292 291 290 287 285 285 290 292 289 290 294 296 298 299 300 298 295 297 296 299 297 296 294 292 292
301 301 299 297 301 297 291 297 298 299 292 288 283 283 284 291 287 286 291 288 289 287 287 286 286 288 288 287 293 294 297 297 296 292 296 298 295 296 296 294 293 290 289 289
299 300 297 294 291 287 294 299 300 298 291 285 284 282 281 288 286 287 285 287 283 285 284 285 288 285 286 290 290 294 296 296 293 292 292 293 291 291 292 290 289 287 287 287
299 296 290 285 290 299 299 292 286 287 287 286 284 287 283 286 286 285 284 285 283 282 284 287 284 285 289 290 292 294 294 294 293 289 287 289 288 288 289 289 289 288 287 287
293 287 286 293 298 291 288 284 284 285 282 285 286 286 284 288 283 282 286 283 284 280 282 284 282 283 286 290 291 292 292 292 292 292 292 292 290 288 287 287 287 286 285 284
293 292 293 292 288 286 283 281 283 283 281 285 285 285 287 286 287 285 284 281 283 278 285 281 279 284 288 288 288 289 290 290 290 291 289 290 289 288 286 285 284 284 283 282
292 288 285 286 284 280 280 276 280 281 284 286 287 284 287 287 287 284 283 278 278 284 280 278 282 285 287 287 286 286 288 288 288 287 287 287 286 286 285 283 282 282 280 279
283 282 280 281 279 281 282 282 283 285 286 287 286 284 286 285 283 282 280 281 282 276 275 278 282 285 285 286 286 286 285 286 285 285 285 284 283 282 282 280 278 276 275 277
283 282 278 280 284 284 284 285 287 286 287 286 286 286 286 283 282 283 281 278 276 278 278 281 284 285 284 284 284 285 285 284 284 284 283 282 282 281 280 281 281 277 276 276
284 282 280 283 283 283 283 284 284 287 285 286 285 282 280 280 281 279 278 278 275 279 281 284 285 284 284 284 284 284 285 284 284 283 283 282 281 280 278 278 276 273 273 272
284 279 280 281 283 283 282 282 284 287 285 282 283 279 279 282 279 278 281 278 280 281 283 285 285 284 283 284 284 284 284 284 284 283 282 281 279 278 277 275 275 275 273 271
Wind_Speed
10 9 9 8 8 10 6 2 2 1 8 6 4 7 7 7 11 10 15 7 14 16 18 12 14 18 18 16 23 16 22 8 13 13 3 5 11 13 14 6 7 4 5 9
11 11 12 11 10 12 5 3 4 1 3 8 11 5 11 11 12 8 6 10 12 16 15 11 15 8 8 7 14 13 11 9 9 5 5 2 7 8 15 6 3 11 8 8
14 14 13 13 14 15 5 4 5 4 5 7 11 13 13 15 10 15 15 15 11 8 17 18 13 10 2 2 7 13 6 5 16 20 21 7 8 8 12 15 3 17 14 15
18 17 17 15 14 15 10 6 5 6 7 14 17 11 6 13 11 14 12 10 23 22 9 18 22 24 24 7 4 1 7 10 12 21 13 5 6 12 14 16 24 12 16 15
19 19 19 17 16 15 8 6 6 3 6 11 20 20 22 23 21 10 9 20 20 18 28 19 23 15 7 12 2 3 0 2 5 13 11 12 10 5 16 20 11 13 12 15
22 22 21 20 19 17 5 4 3 3 10 12 14 18 25 27 26 19 21 20 19 19 25 17 21 20 24 5 6 3 3 4 4 23 5 7 4 20 9 10 6 11 14 16
23 23 23 22 23 22 8 3 3 3 8 15 22 22 22 24 22 21 16 18 22 24 23 17 21 25 24 16 14 3 8 5 7 13 2 9 7 2 12 16 7 12 4 6
27 26 26 25 25 27 12 8 7 5 8 14 17 25 25 22 20 20 19 17 16 13 13 7 9 14 14 17 17 16 5 10 3 5 5 7 15 4 7 9 12 14 9 7
29 28 28 28 27 28 15 12 10 6 4 20 23 22 18 18 16 14 15 13 11 12 12 5 10 11 9 10 8 14 9 7 13 4 5 13 11 13 8 5 9 9 12 10
32 32 31 30 30 30 18 8 18 8 7 10 14 18 20 14 14 11 7 9 9 15 14 10 11 17 7 11 14 10 8 3 19 14 8 10 5 4 8 11 8 6 7 10
33 32 32 32 32 31 22 13 14 12 5 11 15 26 19 8 13 13 11 6 8 8 11 11 8 9 7 9 17 12 11 11 6 4 11 20 7 4 12 5 2 6 7 6
24 27 28 30 30 31 28 13 12 11 8 3 10 16 23 27 16 13 6 8 10 5 9 8 5 8 6 12 10 7 11 7 9 11 7 1 2 3 3 3 8 6 8 10
14 19 23 26 27 29 27 10 10 10 8 4 9 13 19 14 19 11 7 6 7 6 8 6 7 8 3 10 13 9 4 4 4 2 4 5 3 4 3 4 10 13 14 12
12 11 14 21 24 26 27 12 10 11 2 5 7 12 19 22 15 12 14 17 3 2 2 5 6 7 4 5 4 12 5 11 14 6 6 9 1 3 10 13 13 13 11 11
9 13 16 20 22 20 16 11 10 14 8 3 2 5 17 19 16 24 25 15 14 10 6 6 11 9 2 3 1 4 5 7 8 6 13 7 7 13 10 13 13 14 14 10
9 12 18 21 22 21 8 4 8 14 11 3 4 2 6 17 22 19 15 13 8 6 4 4 6 7 6 5 5 1 4 3 3 5 11 4 11 12 6 7 8 8 9 7
12 15 18 30 34 15 7 5 6 21 9 3 3 5 4 12 11 9 9 13 7 7 4 6 3 5 5 2 3 4 6 6 9 14 15 12 15 10 9 13 12 13 13 11
11 11 15 30 23 28 5 2 19 20 6 3 4 3 2 4 6 6 4 3 5 4 6 2 5 5 1 2 4 7 9 11 10 6 8 9 13 11 8 13 14 12 12 12
9 10 3 5 8 5 3 19 19 3 4 4 3 3 2 4 2 3 3 3 5 3 4 5 4 3 5 3 9 14 15 9 14 11 14 14 13 12 14 15 14 15 13 12
11 6 5 5 4 8 11 5 2 1 1 1 2 1 3 2 1 1 3 4 4 4 2 3 4 3 2 1 3 6 7 13 17 16 10 14 13 13 12 15 13 13 13 12
3 3 3 1 5 2 2 4 4 4 3 4 2 2 3 1 1 2 1 1 1 3 3 3 3 2 3 5 7 8 9 9 7 12 12 11 16 16 15 14 13 12 12 11
2 3 3 2 1 1 1 1 2 3 2 3 3 4 2 2 1 2 1 1 2 3 3 2 4 1 8 10 11 11 12 14 14 15 17 17 17 15 15 12 13 13 13 13
2 2 2 1 1 1 1 1 2 1 3 2 3 3 2 3 1 2 1 2 2 1 2 0 2 6 9 9 11 13 12 15 17 18 16 17 16 15 14 13 12 13 14 13
3 2 3 2 2 2 2 2 1 1 1 4 3 3 1 1 3 2 3 3 2 1 2 3 3 8 10 8 9 14 13 14 16 16 15 16 15 14 13 12 12 12 14 12
3 3 3 3 3 2 2 1 2 3 1 1 1 2 2 2 3 1 3 2 1 2 1 2 6 11 12 12 12 13 14 12 13 13 13 14 14 14 15 13 13 14 12 13
3 5 2 2 2 3 3 3 1 1 1 1 1 3 3 3 2 2 1 2 2 1 2 4 9 12 11 13 11 11 12 12 13 12 14 14 13 13 14 14 12 10 12 11
3 2 1 1 2 1 1 1 2 0 1 2 1 4 3 1 2 2 0 1 1 2 5 6 11 12 13 12 14 13 12 13 13 14 13 13 14 14 15 16 13 14 13 10
Wind_Direction
273 274 277 261 245 223 151 181 198 193 156 183 209 218 203 254 267 227 230 265 270 272 279 304 237 215 217 192 202 195 210 207 228 206 135 225 201 211 184 191 201 240 263 250
257 257 259 259 237 216 133 212 165 213 165 209 221 240 241 245 255 226 229 244 217 273 304 270 263 253 233 188 192 187 179 209 226 229 233 111 213 193 200 192 60 207 205 249
257 256 253 244 239 231 189 171 196 186 206 241 224 223 249 251 247 245 248 257 246 283 285 279 284 272 294 148 216 217 160 194 213 225 227 179 205 201 203 194 162 235 227 240
251 251 247 243 240 226 200 184 204 183 195 216 218 225 244 246 241 231 217 232 235 240 260 282 271 271 254 276 155 235 176 199 212 237 240 190 205 216 197 201 222 218 250 231
251 249 245 239 233 228 234 195 185 206 226 177 207 216 230 241 249 252 241 238 249 241 235 233 279 318 246 261 301 128 159 306 188 245 229 228 247 222 208 220 233 239 242 244
253 248 240 233 230 215 220 164 280 223 208 203 192 210 219 229 240 247 245 258 268 267 256 257 267 299 281 276 331 97 112 111 231 249 203 166 220 228 179 191 183 214 221 236
250 248 244 239 228 216 207 173 162 215 228 206 215 217 215 223 224 235 246 236 243 255 267 287 284 287 272 254 262 263 147 142 229 257 160 218 241 239 227 227 208 207 190 168
251 247 238 235 232 226 219 205 216 197 238 223 224 224 224 236 246 243 243 248 265 286 275 285 268 254 239 236 234 241 192 198 212 240 218 287 269 187 157 173 238 209 200 158
248 245 242 238 232 229 225 224 209 235 255 217 219 220 219 228 227 245 244 248 249 246 248 241 239 239 200 181 199 210 186 210 211 137 235 224 258 192 179 146 249 176 184 156
248 242 236 233 229 226 218 219 209 221 244 250 212 219 215 219 226 247 248 222 235 210 230 223 240 252 215 198 187 165 163 171 203 208 233 269 243 220 149 180 239 168 143 143
247 239 234 232 228 223 216 218 203 212 220 246 214 220 217 192 207 221 221 199 223 232 250 206 200 241 229 202 198 174 165 169 179 145 203 246 173 117 188 191 59 120 123 135
243 234 231 230 227 224 215 223 199 196 219 264 228 229 226 211 202 210 210 233 222 220 215 209 208 227 219 189 212 189 202 187 184 191 206 135 61 8 43 76 133 146 124 119
259 237 231 227 224 222 214 207 186 188 212 224 222 217 220 208 210 209 214 211 218 219 263 320 245 258 211 180 207 170 198 150 190 127 171 136 116 91 112 116 121 117 118 120
266 258 252 239 225 220 212 207 182 186 161 226 230 180 200 210 203 205 220 238 283 179 220 295 280 259 176 210 169 197 185 154 215 253 112 103 216 191 141 125 117 119 122 124
278 267 256 245 237 230 219 207 190 183 184 206 207 180 216 201 189 215 227 221 232 247 223 205 251 285 167 300 131 194 184 158 180 215 178 177 172 171 155 137 151 142 135 139
283 271 264 253 233 218 193 226 195 181 191 201 243 289 204 206 204 207 207 191 200 237 225 227 223 222 244 202 202 124 169 182 144 160 150 83 132 134 132 135 121 116 102 88
283 298 324 300 237 199 167 184 166 164 162 120 231 253 208 195 181 206 215 223 192 211 232 216 259 247 205 129 192 181 165 111 110 113 112 106 146 169 146 103 93 85 82 77
306 333 8 17 82 116 146 301 155 152 125 183 227 237 165 214 167 179 153 177 176 196 184 222 193 254 62 223 162 149 132 116 102 62 57 101 111 108 118 108 110 100 96 96
343 326 102 12 28 44 76 134 122 88 143 189 200 200 239 151 177 121 149 149 195 170 191 197 213 173 217 168 161 161 164 158 139 95 88 99 95 107 109 111 112 111 110 106
338 14 33 32 19 71 110 46 78 117 284 136 211 99 212 214 18 55 140 189 167 173 193 155 183 203 107 21 172 143 137 128 127 117 107 108 104 110 115 114 118 116 114 108
37 43 59 45 360 43 66 128 183 165 197 171 176 179 155 354 169 143 267 233 188 136 138 184 174 219 174 133 118 105 112 107 74 96 114 116 127 124 113 104 101 100 100 99
58 104 96 119 56 30 30 157 163 202 164 145 166 155 157 148 193 145 150 98 251 109 129 141 195 122 128 111 102 88 87 89 89 104 111 108 109 109 108 106 105 102 98 90
98 72 83 130 274 60 262 287 146 150 145 160 168 144 125 134 110 76 99 90 38 115 64 171 19 138 114 102 95 86 92 100 101 96 94 97 100 99 102 104 99 98 92 98
85 86 35 28 342 5 2 325 45 94 59 99 99 77 91 172 91 347 46 52 127 47 187 186 147 127 109 103 112 120 109 101 103 102 99 97 99 100 97 95 96 102 100 101
77 69 50 12 315 293 336 359 83 25 4 7 74 95 105 64 105 89 114 69 264 248 266 108 128 123 118 119 123 114 110 110 110 109 108 108 108 104 103 101 102 103 102 105
70 49 65 308 45 48 33 33 67 273 309 309 19 91 71 67 89 81 39 158 225 322 75 124 126 124 126 125 119 113 116 116 114 113 114 112 111 111 107 103 102 101 104 101
63 60 13 337 60 50 302 281 283 228 131 47 8 51 47 129 85 87 76 178 14 109 125 124 132 128 125 126 128 130 123 123 121 118 112 107 109 115 116 115 113 104 100 100